Tracking 30743 objects as of 20-Jun-2025
HD Live streaming from Space Station
objects crossing your sky now

UFO 1 (USA 98)

Track UFO 1 (USA 98) now!
UFO 1 (USA 98) is classified as:


NORAD ID: 22563
Int'l Code: 1993-015A
Perigee: 36,068.4 km
Apogee: 36,097.5 km
Inclination: 24.9 °
Period: 1,450.9 minutes
Semi major axis: 42453 km
RCS: 8.2516 m2 (large)
Launch date: March 25, 1993
Source: United States (US)
Launch site: AIR FORCE EASTERN TEST RANGE (AFETR)
Your satellite tracking list
Your tracking list is empty




NASA's NSSDC Master Catalog

Two Line Element Set (TLE):
1 22563U 93015A   25170.80127472  .00000092  00000-0  00000-0 0  9993
2 22563  24.9317  77.9638 0003430 287.6539 254.7738  0.99248798121103
Source of the keplerian elements: AFSPC